Weather History for EGNC - October, 2012

Change the Weather History Date:

Thursday, October 11, 2012

  Actual Average Record
Temperature  
Mean Temperature 52 °F -  
Max Temperature 53 °F 51 °F 62 °F (2006)
Min Temperature 50 °F 44 °F 42 °F (2014)
Degree Days  
Heating Degree Days 14    
Growing Degree Days 2 (Base 50)    
Moisture  
Dew Point 47 °F    
Average Humidity 86    
Maximum Humidity 94    
Minimum Humidity 76    
Precipitation  
Precipitation 0.00 in - - ()
Sea Level Pressure  
Sea Level Pressure 29.58 in    
Wind  
Wind Speed 4 mph ()    
Max Wind Speed 10 mph    
Max Gust Speed -    
Visibility 5.4 miles    
Events Rain    
Averages and records for this station are not official NWS values.
T = Trace of Precipitation, MM = Missing Value Source: Averaged Metar Reports

Daily Weather History Graph

Daily Weather History Graph

Search for Another Location

Airport or City:

Trip Planner

Search our weather history database for the weather conditions in past years. The results will help you decide how hot, cold, wet, or windy it might be!

Date:

Astronomy

Oct. 11, 2012 Rise Set
Actual Time 7:33 AM BST 6:21 PM BST
Civil Twilight 6:57 AM BST 6:57 PM BST
Nautical Twilight 6:15 AM BST 7:39 PM BST
Astronomical Twilight 5:32 AM BST 8:21 PM BST
Moon 2:15 AM BST (10/11) 4:23 PM BST (10/11)
Length of Visible Light 12h 00m
Length of Day
10h 47m
Waning Crescent, 20% of the Moon is Illuminated
Oct 11
Waning Crescent
Oct 15
New
Oct 22
First Quarter
Oct 29
Full
Nov 7
Last Quarter

Hourly Weather History & Observations

Time (BST) Temp. Dew Point Humidity Pressure Visibility Wind Dir Wind Speed Gust Speed Precip Events Conditions
8:50 AM 50.0 °F 42.8 °F 76% 29.65 in 6.2 mi ESE 5.8 mph - N/A   Partly Cloudy
9:20 AM 50.0 °F 44.6 °F 82% 29.65 in 6.2 mi North 2.3 mph - N/A   Partly Cloudy
9:50 AM 50.0 °F 44.6 °F 82% 29.65 in 6.2 mi NNE 2.3 mph - N/A   Partly Cloudy
10:20 AM 51.8 °F 44.6 °F 76% 29.62 in 6.2 mi East 3.5 mph - N/A   Partly Cloudy
10:50 AM 51.8 °F 44.6 °F 76% 29.62 in 6.2 mi East 3.5 mph - N/A   Partly Cloudy
11:20 AM 53.6 °F 46.4 °F 77% 29.62 in 6.2 mi SE 6.9 mph - N/A   Partly Cloudy
11:50 AM 53.6 °F 46.4 °F 77% 29.62 in 6.2 mi SSE 4.6 mph - N/A   Partly Cloudy
12:20 PM 53.6 °F 48.2 °F 82% 29.62 in 6.2 mi ESE 4.6 mph - N/A Rain Light Rain
12:50 PM 53.6 °F 48.2 °F 82% 29.59 in 6.2 mi SSE 5.8 mph - N/A Rain Light Rain
1:20 PM 53.6 °F 48.2 °F 82% 29.59 in 5.0 mi ESE 2.3 mph - N/A Rain Rain
1:50 PM 53.6 °F 50.0 °F 88% 29.59 in 5.0 mi East 3.5 mph - N/A Rain Rain
2:20 PM 51.8 °F 50.0 °F 94% 29.56 in 5.0 mi ENE 4.6 mph - N/A Rain Rain
2:50 PM 50.0 °F 48.2 °F 94% 29.56 in 5.0 mi ENE 5.8 mph - N/A Rain Rain
3:20 PM 50.0 °F 48.2 °F 94% 29.53 in 6.2 mi ENE 8.1 mph - N/A Rain Light Rain
3:50 PM 50.0 °F 48.2 °F 94% 29.53 in 6.2 mi ENE 8.1 mph - N/A Rain Rain
4:20 PM 50.0 °F 48.2 °F 94% 29.53 in 4.3 mi East 8.1 mph - N/A Rain Rain
4:50 PM 50.0 °F 48.2 °F 94% 29.50 in 3.1 mi East 9.2 mph - N/A Rain Rain
5:20 PM 50.0 °F 48.2 °F 94% 29.50 in 3.1 mi East 10.4 mph - N/A Rain Rain
5:50 PM 50.0 °F 48.2 °F 94% 29.50 in 3.1 mi East 8.1 mph - N/A Rain Rain